Theta_e
339 339 338 337 336 336 336 336 335 334 334 333 332 333 336 337 337 337 336 336 338 337 335 332 327 326 328 332 333 331 332 332 330 329 333 335 332 329 328 327 329 330 328 325 326 327 329 331 331 330 329 329 330 330 330 329 328 328 327 326 326 324 324
339 338 338 337 337 337 336 336 336 335 333 331 332 336 337 338 337 336 336 336 337 336 335 334 329 326 328 330 329 328 328 329 329 329 332 334 331 329 330 329 329 330 330 328 327 327 328 329 330 330 329 329 330 330 330 329 328 328 327 326 325 324 323
339 338 338 338 337 337 336 336 336 335 331 330 334 337 337 338 337 336 336 336 336 335 335 333 329 326 327 328 327 327 328 327 327 329 332 334 333 331 332 330 329 331 330 330 329 329 329 330 329 330 329 329 329 329 329 329 329 329 327 326 325 323 322
338 338 338 338 337 337 336 336 335 335 334 334 337 338 337 337 337 336 336 337 336 335 334 334 330 326 326 327 326 326 328 327 327 329 333 334 333 332 332 331 330 331 331 330 329 329 330 330 328 329 329 328 328 328 328 329 329 328 326 325 324 322 321
338 338 339 339 338 338 337 337 336 337 338 338 338 339 338 337 338 338 337 337 336 335 335 335 332 329 326 326 325 326 328 327 327 330 334 334 331 331 332 331 330 330 331 331 329 328 329 330 328 328 328 327 327 327 326 327 327 326 324 323 322 321 320
338 339 339 339 339 339 338 338 338 338 339 339 339 339 338 338 338 338 338 337 337 336 335 335 335 333 330 326 325 327 329 327 327 332 334 333 332 331 330 331 331 330 330 330 330 329 329 330 329 327 327 327 326 326 325 324 325 324 323 322 321 320 320
339 339 340 340 340 339 339 339 339 338 338 338 338 337 337 337 337 338 337 337 337 337 336 335 335 335 334 331 327 326 328 327 329 332 332 332 332 330 330 332 332 331 329 330 331 330 329 330 330 328 328 326 325 326 325 323 322 322 322 321 320 320 319
340 341 341 341 341 341 340 339 339 339 340 339 337 336 336 336 337 337 336 337 338 337 336 335 335 335 335 334 332 329 327 326 328 331 330 331 332 332 331 332 332 330 328 329 331 331 329 329 330 329 328 326 326 325 324 323 322 322 321 320 320 319 319
341 342 342 342 341 340 340 340 341 341 340 340 338 337 337 337 337 337 336 336 335 335 336 335 334 335 335 335 334 331 328 325 326 328 330 332 333 333 333 333 333 330 328 329 331 330 328 328 329 329 328 327 327 326 325 324 322 322 322 320 320 319 319
341 341 342 342 341 340 340 341 342 341 339 339 338 337 337 338 338 338 337 335 334 334 334 334 333 334 335 334 334 333 329 326 325 326 329 331 333 333 333 334 333 331 330 330 330 329 327 326 326 328 328 327 327 326 325 325 323 323 322 321 320 319 319
341 342 342 342 341 340 340 341 341 340 339 338 338 338 337 338 338 338 336 335 334 334 333 333 333 333 334 334 335 334 331 328 326 327 329 330 332 333 333 333 333 332 331 331 330 329 326 323 323 325 326 326 326 326 325 325 324 324 322 321 321 319 319
341 342 342 342 341 340 340 341 339 338 339 338 338 338 338 338 338 337 336 336 335 334 334 333 333 334 334 333 333 333 332 330 326 326 328 330 332 334 333 333 333 332 331 331 331 329 325 321 321 322 322 323 325 326 326 325 324 324 323 321 321 320 319
342 342 342 341 341 340 340 340 339 337 338 338 338 338 338 339 339 338 336 335 335 335 334 334 334 335 335 334 333 332 332 331 329 328 329 330 332 334 333 333 333 333 332 331 331 329 323 319 319 319 318 320 324 325 325 325 323 323 323 321 320 320 319
342 342 343 341 340 341 341 340 339 337 338 338 339 339 338 338 339 338 336 335 335 335 335 335 335 335 334 334 333 332 332 332 332 331 331 331 333 334 334 333 333 333 332 331 331 328 321 318 319 319 317 317 322 324 324 324 324 323 323 322 320 319 319
342 342 342 341 340 341 341 340 339 338 338 339 339 339 338 338 338 338 337 336 336 336 336 336 335 335 335 334 333 333 333 333 333 333 332 332 332 334 335 334 333 333 332 331 331 325 319 318 318 317 315 314 320 323 322 322 323 324 323 321 321 319 318
343 341 342 341 340 341 341 340 339 338 339 339 339 339 338 338 338 337 337 336 336 336 335 335 335 335 334 334 334 334 333 333 333 333 333 332 332 334 335 333 333 332 330 330 328 322 318 317 315 315 315 312 316 321 320 319 322 324 322 320 320 319 318
343 342 341 341 342 342 341 341 339 339 339 340 339 339 338 338 337 337 337 336 336 335 335 335 335 334 334 334 333 334 333 333 334 333 333 333 333 333 332 332 331 328 327 326 324 320 317 315 313 313 313 310 311 314 315 317 320 322 321 319 319 318 318
343 342 342 342 343 342 342 341 340 340 340 339 338 338 337 338 338 337 337 336 336 336 335 334 334 334 334 334 333 334 334 333 333 333 333 332 331 332 331 330 329 327 324 323 320 318 316 314 313 312 311 310 309 308 308 311 316 319 320 319 318 318 317
344 343 342 343 343 343 342 341 341 340 340 339 338 338 337 338 337 337 336 336 336 336 334 334 334 333 333 333 334 334 334 333 333 332 333 332 331 331 330 328 327 325 322 320 319 318 316 314 314 314 313 312 311 307 304 306 312 318 319 319 318 317 316
344 343 342 343 343 343 342 341 341 341 340 338 337 338 338 337 337 337 337 336 335 335 334 334 334 333 333 333 333 334 333 332 332 331 333 333 331 329 328 325 323 321 320 319 318 317 316 314 314 314 313 312 309 305 304 306 311 316 319 319 318 317 316
344 344 343 342 343 343 342 342 341 340 339 337 337 337 338 338 337 336 336 336 335 334 334 333 333 332 332 331 332 333 332 331 331 331 332 331 328 325 324 323 320 318 318 317 316 316 315 314 313 312 312 310 306 305 310 312 311 313 317 319 318 317 317
344 344 343 343 343 343 342 341 341 339 338 337 336 336 337 338 337 336 336 335 335 334 333 332 331 330 329 329 330 331 332 332 331 331 329 327 324 322 322 320 317 316 316 315 314 314 314 312 311 311 311 309 305 305 310 313 313 314 317 318 317 317 316
343 344 344 343 343 343 342 341 341 339 338 336 335 336 337 337 336 336 335 335 334 333 331 329 329 329 328 328 329 331 331 331 330 329 327 324 322 321 320 318 316 315 314 312 312 313 313 312 311 311 312 311 307 305 308 312 315 317 318 317 317 317 315
344 343 343 343 343 342 342 341 340 339 337 335 334 336 337 336 335 335 334 334 333 331 329 328 328 329 328 328 329 330 330 329 328 326 324 322 321 320 319 318 316 315 314 313 314 314 315 314 313 313 314 312 308 307 311 314 316 317 317 317 317 316 315
344 343 343 343 342 342 342 341 340 338 336 334 334 336 337 335 335 335 334 333 332 329 328 327 327 328 328 328 328 329 328 327 325 324 322 321 321 320 319 318 317 316 316 315 316 317 317 316 315 314 314 313 309 308 311 314 314 315 316 315 316 315 315
343 342 343 342 342 341 341 340 339 338 336 334 334 335 335 335 335 334 334 333 331 329 327 327 328 328 327 327 328 327 326 325 324 323 322 321 320 320 319 319 318 318 317 316 316 317 316 315 314 313 311 312 310 307 307 308 310 313 315 315 315 314 314
342 342 342 341 341 341 340 339 338 337 335 333 333 334 335 335 335 334 333 332 331 329 328 327 328 327 326 326 327 326 325 325 324 323 322 321 320 320 319 318 318 317 316 315 315 314 314 313 311 308 307 310 310 307 305 306 307 310 312 313 314 313 313
341 341 341 340 340 339 339 338 337 336 334 332 333 333 334 335 334 333 332 332 330 329 328 328 327 325 325 326 326 325 325 325 324 323 322 322 320 319 319 318 317 316 315 314 312 310 309 307 304 304 308 311 312 310 308 307 308 310 311 312 312 311 310
340 340 340 339 339 338 338 338 336 334 334 334 334 335 335 335 334 332 331 331 330 328 328 327 326 324 325 326 326 325 325 324 324 323 322 322 321 320 319 318 316 315 314 313 311 306 303 300 301 306 310 312 312 309 306 305 306 308 310 310 309 308 304
339 339 338 338 337 338 338 338 335 333 334 334 334 335 335 333 332 331 331 330 329 328 328 326 324 324 325 325 325 325 324 324 323 323 322 321 320 319 318 317 315 315 314 313 312 309 303 299 301 306 309 310 310 306 303 304 306 306 306 304 302 301 299
338 338 337 337 338 337 338 337 334 332 333 334 334 335 334 332 331 331 330 329 328 328 327 326 324 323 324 324 324 324 324 323 323 322 321 320 319 318 318 317 315 315 314 314 314 310 304 301 303 304 305 307 307 304 302 304 305 302 300 299 298 297 297
338 337 337 337 336 334 334 335 333 333 334 335 335 335 333 332 331 330 329 328 327 328 328 326 324 324 324 323 324 324 323 323 323 322 321 319 319 319 319 317 316 315 315 314 314 311 304 303 305 304 304 307 306 303 302 303 301 299 299 299 299 299 298
337 336 336 335 333 330 330 331 332 333 334 335 334 333 332 331 330 330 329 328 328 328 328 326 325 325 325 325 325 324 323 323 322 322 321 319 319 319 318 317 316 315 315 315 315 313 307 305 304 302 304 308 307 302 302 304 303 304 305 304 304 304 302
336 335 335 334 332 330 331 332 334 334 335 335 333 332 331 330 330 329 328 328 327 327 327 327 327 326 326 326 326 324 323 323 322 322 321 319 319 318 318 317 316 315 315 315 315 314 310 307 304 301 304 307 304 300 303 304 304 306 307 306 306 305 302
335 334 334 332 332 332 332 334 336 336 335 334 331 331 331 329 329 329 328 328 327 327 327 327 327 327 327 326 326 324 323 323 322 321 320 320 318 316 316 317 316 315 315 315 314 314 312 309 307 304 303 303 299 298 302 304 304 305 305 304 304 303 301
333 333 332 330 330 333 334 336 337 335 333 331 330 331 331 329 328 329 328 327 327 326 327 327 326 326 327 326 326 324 323 323 322 320 320 319 317 316 317 318 317 315 315 314 314 313 311 309 308 306 303 301 300 301 303 304 304 303 302 303 304 304 304
331 332 332 332 331 332 333 335 336 334 331 330 331 332 331 328 328 329 327 326 326 326 326 326 326 327 327 327 326 325 324 323 321 320 320 319 318 319 319 318 317 316 315 314 313 312 311 309 307 305 304 302 301 303 305 306 305 303 303 304 306 305 305
Wind_Speed
17 16 15 16 15 14 14 15 15 15 15 15 14 15 15 14 14 12 12 10 8 8 8 9 12 13 14 14 14 16 16 18 19 20 17 14 14 13 11 11 11 9 8 7 6 9 10 10 9 11 15 18 15 13 13 11 10 9 10 10 9 10 11
15 15 14 15 14 14 15 15 15 14 15 15 15 16 16 15 14 13 12 11 10 9 9 9 11 13 15 15 15 15 17 18 19 19 18 15 14 13 11 12 12 11 10 7 6 8 11 12 10 8 12 17 18 18 18 16 14 12 12 10 8 10 12
16 15 14 15 16 15 15 15 15 14 14 16 17 17 17 16 15 14 13 12 11 10 10 10 11 14 16 16 15 16 16 18 19 19 18 16 14 13 12 13 13 12 12 9 7 7 9 12 12 9 11 14 17 19 21 19 16 14 13 12 10 10 11
18 17 16 16 16 15 15 15 15 14 14 17 17 17 18 17 16 15 14 13 12 12 11 11 11 12 15 16 15 16 17 18 19 19 17 16 15 15 14 13 14 14 13 10 8 7 9 11 12 11 11 12 13 16 20 19 17 14 12 12 11 8 6
18 17 17 16 16 15 15 15 15 15 15 16 16 16 17 18 16 16 14 13 13 12 11 10 8 9 12 14 15 16 17 18 20 19 17 16 16 15 15 14 14 15 14 11 10 8 10 11 11 11 12 12 12 12 14 17 18 15 10 10 8 6 5
18 17 17 16 16 16 16 16 16 16 15 15 15 15 16 17 16 15 13 13 12 12 12 11 9 9 10 12 15 16 17 18 20 19 16 15 15 15 15 13 15 16 14 12 11 11 10 11 12 12 12 12 12 11 11 12 14 12 10 9 8 7 7
19 18 17 16 16 15 15 16 15 14 14 14 14 14 14 14 13 13 14 14 13 14 14 14 13 12 12 12 13 15 16 18 20 20 17 15 15 16 15 14 15 14 13 12 12 13 12 12 13 12 13 12 11 12 11 10 10 11 11 9 9 9 9
19 18 17 16 15 15 15 15 14 13 13 13 13 12 12 12 12 13 14 14 14 15 15 15 15 15 14 14 13 14 15 17 19 20 19 17 17 16 15 15 14 14 13 12 13 14 13 13 13 13 14 14 13 13 12 11 11 13 11 9 10 11 9
19 18 17 16 16 16 14 14 13 12 12 12 13 12 11 11 12 11 12 13 14 15 16 16 16 15 15 15 15 16 16 18 20 20 19 18 18 17 15 16 16 15 14 12 13 15 15 14 14 13 16 16 13 12 12 12 12 13 13 11 11 11 10
19 18 17 16 16 16 15 13 12 11 13 13 13 13 12 12 11 10 11 13 13 14 15 15 15 15 15 15 16 18 18 18 19 20 19 18 18 17 16 17 17 16 14 12 13 15 16 16 15 14 16 16 14 11 11 12 12 12 13 12 12 10 10
18 18 17 16 16 16 15 13 11 11 13 14 13 14 14 12 11 10 11 12 12 13 14 14 13 14 15 16 16 18 19 19 19 20 20 19 19 18 18 18 17 16 15 13 14 16 16 17 18 17 15 16 15 12 10 10 10 10 11 13 12 9 10
18 18 17 16 16 16 15 12 9 9 11 12 13 14 14 13 11 10 10 10 11 12 13 14 14 14 15 16 16 17 19 20 21 21 21 21 20 19 18 19 18 17 15 14 15 16 15 17 19 19 17 17 16 15 12 9 9 9 10 12 12 9 11
19 18 17 17 16 16 15 11 8 7 9 11 13 14 14 12 11 10 10 11 12 12 13 14 14 14 15 16 17 18 19 20 21 22 21 20 20 20 19 19 18 17 15 15 16 15 15 17 19 19 19 18 16 15 14 11 9 9 9 10 11 10 11
19 18 18 17 16 14 14 12 8 7 9 11 13 14 13 11 10 10 11 12 12 12 13 13 13 14 15 16 18 19 20 21 22 22 22 21 20 21 20 19 18 18 16 15 16 15 15 17 19 18 18 18 16 15 15 13 10 9 9 10 11 11 10
20 19 18 18 17 14 13 12 10 8 9 11 12 13 12 11 10 11 11 11 12 11 11 12 13 13 14 16 17 18 19 20 21 21 22 22 21 22 22 21 20 19 17 15 15 15 15 16 16 16 17 18 16 13 15 15 11 10 10 10 12 13 12
20 20 19 18 17 14 12 12 11 9 8 9 11 12 11 10 10 11 12 12 12 12 12 12 13 14 13 14 15 16 17 19 20 21 22 21 22 23 23 23 22 20 16 14 14 14 15 15 14 14 15 17 16 13 14 16 12 10 10 9 11 14 15
20 20 19 18 17 14 13 13 12 10 8 9 10 11 10 9 10 11 12 12 12 12 12 12 13 14 15 15 14 14 14 15 16 18 19 19 21 24 25 24 22 17 12 12 14 14 15 14 14 14 14 15 15 15 14 15 14 11 10 9 10 11 12
20 20 20 18 16 14 14 15 13 10 9 9 10 11 10 10 11 11 11 11 11 11 11 12 13 14 15 15 15 13 12 13 14 14 15 16 19 23 24 22 19 14 10 11 13 14 13 12 11 12 12 11 13 14 15 15 15 14 11 10 10 10 10
20 20 20 17 15 14 15 15 13 11 10 9 10 10 10 10 11 11 10 10 10 11 12 13 14 15 15 14 13 13 13 14 16 16 16 17 20 22 21 18 15 12 11 11 12 11 10 10 10 10 11 11 11 12 13 14 15 14 13 11 10 11 11
20 20 19 17 16 15 15 15 14 13 11 10 10 10 9 10 11 10 9 9 10 11 12 14 14 15 15 13 12 14 15 14 15 16 18 20 20 18 16 15 13 11 11 10 10 10 9 9 9 10 11 11 11 11 11 12 14 14 12 11 11 11 11
19 19 19 18 16 16 16 15 15 14 13 11 11 10 9 10 11 10 10 10 11 11 12 13 14 14 14 14 14 15 14 13 13 16 18 17 14 13 14 14 12 11 10 10 9 10 10 9 8 8 10 9 8 8 9 10 13 13 12 11 11 11 11
19 18 18 17 16 16 17 16 16 15 13 12 12 11 10 10 10 10 10 11 11 11 11 13 13 13 13 14 15 16 14 12 12 13 13 12 12 13 14 13 12 12 11 10 9 8 9 8 7 8 9 8 6 8 10 10 10 10 10 10 10 10 10
19 19 18 17 17 17 17 16 15 15 14 13 12 12 12 11 10 9 10 11 11 11 11 12 12 12 12 12 13 14 12 10 8 8 10 13 14 13 13 12 13 12 10 8 8 8 8 8 8 9 9 8 7 8 9 9 8 8 8 9 9 9 9
19 19 18 17 16 16 15 15 15 15 15 14 13 13 13 12 11 11 10 10 11 11 11 10 10 12 12 10 11 12 10 8 10 14 15 14 13 13 13 13 12 11 9 7 9 10 9 9 11 11 10 9 8 8 9 8 7 7 7 7 8 8 8
18 18 17 17 16 16 16 16 16 16 16 15 15 15 14 12 12 11 9 10 12 12 11 9 10 11 12 10 10 11 11 14 17 18 15 13 12 13 13 13 12 11 10 10 11 10 9 11 12 12 10 9 8 9 11 12 10 8 7 7 8 8 6
17 19 19 18 17 18 18 18 18 18 17 16 17 17 14 13 12 10 9 12 14 13 11 9 10 12 11 10 11 13 15 17 17 16 14 13 12 12 11 11 10 10 10 11 11 10 10 11 12 11 9 9 10 11 12 13 13 13 11 8 7 7 7
18 20 19 18 18 19 19 20 20 19 17 17 18 19 16 14 13 11 12 14 15 13 11 10 11 12 11 12 16 15 14 15 16 14 13 12 11 11 11 10 9 9 9 9 10 10 10 11 11 11 10 8 8 9 10 12 13 14 14 10 5 7 10
19 19 19 19 19 19 20 21 21 19 17 16 17 18 16 14 13 12 13 16 16 13 11 11 13 13 11 14 18 16 13 13 14 13 12 12 11 11 10 8 7 6 6 6 7 8 9 10 11 11 9 6 6 7 9 10 12 11 10 8 5 8 12
18 18 18 19 20 20 21 23 22 20 19 17 17 17 15 13 12 11 13 16 16 13 12 13 15 14 13 16 19 16 14 13 12 11 12 11 10 9 7 7 5 5 5 4 4 5 6 8 9 10 9 7 7 8 9 10 11 11 10 9 8 8 10
16 17 17 18 19 21 23 24 22 20 20 19 18 18 15 11 11 11 14 17 15 13 13 15 16 15 16 19 19 15 13 13 11 11 11 10 9 9 8 7 5 4 3 2 2 3 4 6 8 10 11 10 8 8 9 9 10 9 8 8 8 7 6
15 16 16 16 18 20 23 24 23 21 20 20 19 18 14 10 10 12 15 17 15 14 15 17 18 17 18 20 19 14 13 13 12 11 12 12 11 10 9 8 6 5 4 3 3 3 4 7 8 9 11 11 9 8 9 8 7 7 6 6 6 6 6
15 14 14 15 17 19 21 23 24 23 21 20 20 19 13 9 11 13 14 16 16 16 17 19 19 19 19 20 18 14 13 14 12 12 14 14 13 11 9 8 8 6 5 4 3 4 5 7 9 9 10 10 10 9 8 7 7 8 8 8 8 8 8
15 13 13 15 16 19 20 22 23 23 22 21 20 17 11 10 13 15 15 16 17 17 18 19 19 19 19 20 18 15 13 14 14 15 16 16 15 13 11 10 9 7 5 4 3 3 3 5 8 9 10 10 10 10 10 10 11 10 9 9 8 7 7
14 13 13 15 18 21 21 20 21 22 23 21 18 15 13 13 14 16 16 16 17 19 20 20 19 19 19 19 18 16 14 13 14 16 17 17 15 14 13 11 9 7 6 4 3 3 3 4 6 8 10 10 11 11 12 13 12 10 8 8 7 6 7
16 15 15 17 22 24 23 21 21 23 24 20 16 16 16 14 14 14 13 12 15 19 21 21 20 19 19 18 17 16 14 13 14 16 18 17 15 14 13 12 9 7 6 4 3 2 3 4 4 5 7 9 10 12 13 13 12 10 8 9 9 9 10
16 16 17 19 22 25 25 23 23 25 24 20 18 18 17 15 14 14 12 11 14 19 22 22 21 20 19 17 16 16 15 15 15 17 18 17 17 15 14 11 9 8 7 4 3 2 3 3 3 3 5 8 10 12 13 13 12 11 11 11 11 11 11
16 16 16 16 18 23 25 23 24 24 23 22 22 20 18 18 16 13 12 12 15 19 21 22 23 22 20 18 17 16 15 14 15 17 17 17 16 15 13 11 11 10 8 6 5 3 4 4 3 4 5 7 10 12 12 11 10 10 11 12 11 11 11
Wind_Direction
197 201 200 198 197 197 201 204 205 203 200 200 201 200 200 203 205 206 207 209 212 216 221 229 227 221 219 221 223 223 222 222 222 224 226 229 231 233 235 239 233 216 211 217 221 237 253 259 256 249 241 236 232 228 223 221 228 237 241 252 279 297 300
194 196 198 198 197 198 202 202 200 201 201 198 198 200 199 203 205 207 210 210 211 215 218 225 225 219 218 220 222 223 223 222 221 224 228 230 234 236 236 237 229 212 210 218 225 234 246 254 251 240 238 234 228 228 231 232 235 241 244 249 270 290 295
192 191 194 197 199 199 200 198 195 200 200 195 196 199 201 204 207 209 213 214 213 216 218 223 225 220 218 221 223 224 223 224 224 226 231 236 238 236 232 233 230 217 212 216 229 235 233 246 253 244 238 235 229 231 236 236 236 237 242 249 267 285 287
190 190 191 194 195 191 190 192 190 191 193 194 197 201 204 208 211 213 215 215 217 220 221 224 226 220 219 221 223 225 226 226 228 231 234 237 237 234 229 232 235 228 225 235 249 240 220 234 247 242 240 241 235 237 237 233 231 230 231 243 263 277 268
188 189 188 187 187 182 183 186 186 187 191 196 198 202 207 210 213 216 217 218 222 228 229 230 234 226 221 222 221 223 228 229 232 234 234 233 232 231 230 233 239 236 235 247 262 248 221 227 238 236 237 235 229 237 239 231 228 226 222 231 246 250 230
189 189 186 185 186 183 183 184 184 187 191 194 197 202 209 212 214 218 219 221 225 231 233 232 233 229 221 220 220 223 229 230 232 233 233 234 232 230 233 235 241 243 241 242 253 249 227 222 232 232 232 230 221 222 231 229 224 222 223 224 224 228 227
192 191 188 187 189 187 186 187 187 188 190 193 195 199 207 211 214 218 220 222 226 229 231 231 230 230 227 223 222 227 231 231 234 235 236 240 236 230 232 234 237 244 245 242 246 249 236 223 225 223 221 222 215 214 223 227 218 216 223 224 215 217 219
195 194 193 191 190 189 188 190 191 190 190 193 194 195 200 205 211 220 222 224 229 231 233 236 236 235 234 232 229 230 232 232 234 236 239 242 239 233 231 231 233 239 241 240 246 252 245 229 223 222 217 211 207 210 216 217 213 213 217 217 214 214 212
196 195 193 192 192 190 189 192 193 190 192 197 201 200 200 207 215 225 230 231 234 236 238 243 244 241 240 240 239 235 232 231 232 233 236 240 239 234 231 230 233 238 239 239 247 254 250 235 225 222 219 212 209 209 209 210 213 214 212 206 209 211 212
195 195 193 193 194 192 191 193 191 190 194 199 202 203 204 214 222 227 233 236 238 238 240 245 247 246 247 247 244 239 234 231 232 231 231 236 237 233 230 230 233 238 241 243 249 253 251 241 229 220 218 216 217 216 211 212 214 215 210 202 202 206 210
194 194 194 193 192 192 192 190 185 189 195 196 199 202 207 219 228 229 233 239 240 241 244 248 249 247 248 248 245 240 234 230 232 232 231 233 234 232 230 231 233 239 244 248 253 256 254 243 230 223 221 220 221 224 225 225 223 215 209 206 204 206 212
194 194 193 191 189 190 189 182 179 189 193 194 199 204 209 217 224 228 234 239 239 241 245 250 252 252 251 248 245 241 233 228 231 233 233 234 233 230 230 232 233 237 244 251 257 260 254 238 228 226 227 226 224 225 227 233 234 217 207 211 211 211 215
195 195 194 192 191 191 188 181 182 195 196 198 202 208 213 214 218 226 232 234 234 236 242 249 254 257 257 252 245 240 234 229 230 232 234 236 234 230 230 234 235 237 244 252 259 262 251 233 226 225 228 227 224 226 223 224 233 221 206 212 213 212 213
194 193 194 194 193 193 190 184 190 205 206 204 205 211 214 211 216 229 235 236 234 236 243 251 254 254 255 252 244 240 236 232 231 232 234 236 233 230 229 231 233 235 240 249 258 259 245 231 225 224 226 225 224 227 223 218 227 224 211 209 206 205 206
195 194 197 197 195 193 189 187 198 209 208 205 207 215 215 206 213 229 237 239 238 238 243 251 256 253 249 246 242 239 237 234 232 231 233 234 232 230 228 227 230 231 234 245 256 253 238 227 225 224 225 224 221 225 224 218 219 222 221 214 203 210 224
196 197 200 198 194 192 188 190 202 210 207 205 209 216 215 210 218 231 234 234 235 240 243 246 252 251 245 239 236 238 239 238 236 232 232 233 232 232 227 224 228 228 228 240 248 241 228 218 215 216 222 223 218 221 223 216 212 215 221 220 209 218 241
196 198 198 196 194 192 191 195 205 210 207 204 206 214 218 218 227 235 236 234 234 239 244 246 247 245 240 235 235 237 239 239 237 233 231 232 234 234 227 223 227 226 226 237 236 227 218 211 210 213 219 221 219 224 227 217 213 211 212 220 218 215 234
196 197 197 196 197 196 197 201 206 208 209 209 211 219 221 219 225 235 239 239 240 243 246 249 248 242 238 237 237 239 239 237 231 228 228 229 233 235 230 226 228 228 228 233 226 216 212 210 212 217 220 221 222 227 229 224 219 213 209 217 221 212 213
194 197 199 200 202 203 203 203 204 206 211 211 209 213 218 220 227 234 237 240 243 248 249 249 249 246 242 240 240 237 232 228 226 226 226 225 230 235 231 225 223 218 217 221 214 208 208 208 211 221 228 230 232 232 228 227 221 211 207 210 213 213 209
194 197 201 204 204 204 202 199 201 209 213 211 206 205 212 222 227 229 233 237 241 246 249 248 246 245 243 238 234 234 229 224 225 229 231 233 236 233 222 214 209 198 196 201 199 199 203 210 215 225 232 233 239 237 226 224 219 206 202 207 208 210 209
193 197 204 206 202 198 197 197 204 213 214 211 208 204 208 220 224 225 228 235 243 248 249 246 243 242 241 233 225 228 232 225 224 233 238 236 226 208 198 198 191 179 181 187 191 196 203 211 218 229 238 239 237 227 212 213 217 207 199 203 207 208 209
192 194 202 205 201 197 197 197 206 214 213 209 209 209 211 217 221 223 229 237 245 248 247 245 241 234 233 230 223 223 227 225 230 242 239 214 189 184 186 183 173 167 172 181 191 201 206 215 227 236 245 251 239 215 202 200 203 199 195 201 207 207 206
191 191 197 200 198 196 195 195 201 210 212 210 212 214 214 219 224 229 234 239 241 242 240 239 237 229 226 230 224 215 215 223 225 213 192 177 172 174 173 168 165 164 167 180 200 206 205 218 234 238 241 246 237 213 201 196 190 189 195 203 209 209 208
190 192 195 198 196 191 193 197 199 204 210 212 213 215 216 223 231 230 230 233 234 234 231 231 235 232 226 224 213 200 197 196 176 163 164 170 169 165 164 166 167 164 164 184 204 205 204 216 229 234 236 239 232 206 193 195 193 193 201 206 212 218 217
187 192 195 199 200 197 196 199 201 204 210 214 213 214 216 221 223 221 223 228 228 226 226 229 231 226 218 209 194 179 168 163 160 160 164 168 164 162 164 166 165 163 169 190 203 206 209 219 227 233 236 239 234 212 198 196 191 188 203 219 222 224 223
185 194 199 200 201 201 198 200 204 207 211 214 213 216 222 223 221 219 222 225 223 221 222 225 222 216 208 191 167 154 154 158 162 166 168 164 161 162 164 167 171 173 182 199 210 216 221 225 230 235 237 236 236 226 214 209 201 189 189 203 223 232 231
190 199 203 200 199 200 199 202 207 209 213 216 218 221 224 220 217 221 225 223 219 217 218 217 209 201 189 166 153 147 154 163 167 170 169 164 164 164 167 176 182 184 192 206 215 221 227 232 232 232 230 227 228 226 222 220 214 202 194 191 205 228 224
195 199 198 197 198 200 200 203 207 209 213 217 218 218 215 212 216 225 225 219 215 212 212 204 191 182 169 159 156 153 159 166 168 172 172 170 170 169 173 181 183 187 198 207 213 216 219 223 223 220 211 199 204 212 211 212 215 213 208 202 205 225 226
192 193 192 194 195 196 198 203 206 209 211 213 214 212 206 207 218 222 214 210 210 207 200 188 177 167 157 158 159 159 165 168 168 173 174 172 172 172 175 180 180 186 193 195 210 212 204 202 200 192 183 177 191 207 210 212 215 218 223 228 234 240 238
185 187 189 191 192 194 198 202 204 208 210 211 212 209 203 204 214 214 206 204 203 199 190 178 170 162 154 158 160 160 167 170 169 174 176 173 174 174 172 172 173 180 182 172 193 203 185 180 178 177 179 178 184 205 211 209 213 218 223 227 226 224 218
184 186 186 188 191 195 199 200 200 205 212 214 211 205 200 200 202 200 200 199 195 191 185 177 172 167 161 164 168 166 169 175 176 178 179 178 179 178 172 168 169 176 181 171 168 184 177 166 168 178 183 179 182 201 207 201 199 195 184 177 172 165 156
182 183 182 184 186 189 194 197 199 204 212 213 207 200 196 197 192 187 190 193 189 186 184 180 178 175 172 175 177 173 175 181 183 186 188 186 186 185 179 177 181 182 182 178 169 179 180 164 165 175 176 174 181 188 185 175 162 151 142 135 128 123 120
178 177 180 181 182 186 189 192 196 202 207 206 200 196 195 196 192 188 188 190 187 186 186 185 182 179 177 180 180 174 175 185 190 194 197 193 189 191 189 189 193 188 182 185 174 171 178 168 169 175 170 171 181 176 162 151 143 137 131 127 123 118 115
175 175 181 184 186 189 190 191 194 197 199 199 196 195 196 194 192 192 190 189 191 191 188 186 185 182 178 179 180 174 172 186 196 197 197 194 189 193 195 196 199 195 187 191 176 154 159 161 165 171 172 182 190 176 158 151 148 143 139 137 136 135 129
177 178 187 192 193 195 196 199 199 196 195 194 192 195 200 196 190 188 185 187 197 198 191 186 185 183 179 178 178 173 171 185 198 198 196 191 183 187 197 200 203 204 199 196 184 163 157 153 157 171 179 189 190 172 157 154 152 145 139 137 137 135 129
184 189 194 194 194 196 199 201 199 196 195 194 192 194 197 193 186 186 186 194 204 201 195 191 188 185 183 180 177 177 179 186 196 201 202 196 188 193 204 206 206 212 211 208 211 198 167 145 138 161 174 177 174 162 155 153 149 144 141 140 139 139 136
197 198 198 198 199 199 200 200 198 195 194 195 193 192 192 191 189 191 197 211 216 205 198 197 194 189 188 186 183 186 188 185 190 200 206 205 203 209 215 211 212 217 217 215 219 203 168 150 150 161 167 170 166 159 153 151 149 145 144 143 143 144 144